Burlington, IA

6:38 PM CDT on April 21, 2018 (GMT -0500)
Burlington Regional

Weather History for KBRL - August, 2013

Change the Weather History Date:

Tuesday, August 13, 2013

  Actual Average Record
Temperature  
Mean Temperature 68 °F 76 °F  
Max Temperature 76 °F 85 °F 104 °F (1936)
Min Temperature 59 °F 66 °F 46 °F (1964)
Degree Days  
Heating Degree Days 0 0  
Month to date heating degree days 0 0  
Since 1 June heating degree days 23 14  
Since 1 July heating degree days 8 1  
Cooling Degree Days 3 11  
Month to date cooling degree days 96 143  
Year to date cooling degree days 700 872  
Since 1 June cooling degree days 601 769  
Growing Degree Days 17 (Base 50)    
Moisture  
Dew Point 56 °F    
Average Humidity 68    
Maximum Humidity 90    
Minimum Humidity 46    
Precipitation  
Precipitation 0.00 in 0.14 in 1.66 in (2010)
Month to date precipitation T 1.70  
Year to date precipitation 27.06 24.68  
Sea Level Pressure  
Sea Level Pressure 30.09 in    
Wind  
Wind Speed 8 mph (NNE)    
Max Wind Speed 15 mph    
Max Gust Speed 20 mph    
Visibility 10 miles    
Events      
T = Trace of Precipitation, MM = Missing Value Source: NWS Daily Summary

Daily Weather History Graph

Daily Weather History Graph

Search for Another Location

Airport or City:

Astronomy

Aug. 13, 2013 Rise Set
Actual Time 6:12 AM CDT 8:04 PM CDT
Civil Twilight 5:43 AM CDT 8:34 PM CDT
Nautical Twilight 5:07 AM CDT 9:10 PM CDT
Astronomical Twilight 4:28 AM CDT 9:48 PM CDT
Moon 1:11 PM CDT (8/13) 11:37 PM CDT (8/13)
Length of Visible Light 14h 51m
Length of Day
13h 51m
Waxing Crescent, 42% of the Moon is Illuminated
Aug 13
Waxing Crescent
Aug 14
First Quarter
Aug 20
Full
Aug 28
Last Quarter
Sep 5
New

Hourly Weather History & Observations

Time (CDT) Temp. Dew Point Humidity Pressure Visibility Wind Dir Wind Speed Gust Speed Precip Events Conditions
12:53 AM 66.0 °F 57.9 °F 75% 30.00 in 10.0 mi North 6.9 mph - N/A   Clear
1:53 AM 64.0 °F 57.9 °F 80% 29.99 in 10.0 mi North 5.8 mph - N/A   Clear
2:53 AM 63.0 °F 57.9 °F 84% 29.99 in 10.0 mi North 5.8 mph - N/A   Clear
3:53 AM 61.0 °F 57.0 °F 87% 30.00 in 10.0 mi NNW 5.8 mph - N/A   Clear
4:53 AM 60.1 °F 57.0 °F 90% 30.01 in 10.0 mi NNW 6.9 mph - N/A   Clear
5:53 AM 59.0 °F 55.9 °F 90% 30.02 in 10.0 mi North 5.8 mph - N/A   Clear
6:53 AM 60.1 °F 55.9 °F 86% 30.03 in 8.0 mi NNW 4.6 mph - N/A   Clear
7:53 AM 63.0 °F 57.9 °F 84% 30.05 in 10.0 mi NNE 10.4 mph - N/A   Clear
8:53 AM 64.0 °F 59.0 °F 84% 30.07 in 10.0 mi ENE 11.5 mph - N/A   Clear
9:38 AM 66.2 °F 60.8 °F 83% 30.10 in 10.0 mi ENE 8.1 mph - N/A   Mostly Cloudy
9:53 AM 68.0 °F 61.0 °F 78% 30.10 in 10.0 mi ENE 10.4 mph - N/A   Overcast
10:48 AM 69.8 °F 60.8 °F 73% 30.12 in 10.0 mi NE 10.4 mph - N/A   Mostly Cloudy
10:53 AM 69.1 °F 61.0 °F 75% 30.11 in 10.0 mi NE 8.1 mph - N/A   Mostly Cloudy
11:06 AM 71.6 °F 60.8 °F 69% 30.12 in 10.0 mi NE 8.1 mph - N/A   Scattered Clouds
11:53 AM 72.0 °F 59.0 °F 64% 30.12 in 10.0 mi Variable 4.6 mph - N/A   Scattered Clouds
12:01 PM 73.4 °F 60.8 °F 65% 30.13 in 10.0 mi NNE 8.1 mph - N/A   Mostly Cloudy
12:18 PM 73.4 °F 59.0 °F 61% 30.13 in 10.0 mi North 6.9 mph - N/A   Scattered Clouds
12:53 PM 72.0 °F 57.9 °F 61% 30.13 in 10.0 mi NE 9.2 mph - N/A   Partly Cloudy
1:53 PM 75.9 °F 57.9 °F 54% 30.12 in 10.0 mi NE 10.4 mph - N/A   Clear
2:53 PM 73.0 °F 54.0 °F 51% 30.12 in 10.0 mi NNE 6.9 mph - N/A   Scattered Clouds
3:53 PM 73.0 °F 55.0 °F 53% 30.10 in 10.0 mi ENE 9.2 mph - N/A   Mostly Cloudy
4:53 PM 75.0 °F 53.1 °F 46% 30.10 in 10.0 mi ENE 9.2 mph - N/A   Partly Cloudy
5:53 PM 73.0 °F 53.1 °F 49% 30.09 in 10.0 mi NNE 12.7 mph - N/A   Clear
6:53 PM 71.1 °F 52.0 °F 51% 30.09 in 10.0 mi NNE 12.7 mph - N/A   Clear
7:53 PM 68.0 °F 51.1 °F 55% 30.10 in 10.0 mi NE 5.8 mph - N/A   Clear
8:53 PM 66.0 °F 52.0 °F 60% 30.12 in 10.0 mi ENE 6.9 mph - N/A   Clear
9:53 PM 63.0 °F 51.1 °F 65% 30.13 in 10.0 mi NE 5.8 mph - N/A   Clear
10:53 PM 62.1 °F 50.0 °F 65% 30.15 in 10.0 mi ENE 4.6 mph - N/A   Clear
11:53 PM 61.0 °F 50.0 °F 67% 30.17 in 10.0 mi ENE 3.5 mph - N/A   Clear